Voltar ao catálogo

FENGYUN 1C DEB

AtivoSSO
NORAD 30915·DEBRIS·🇨🇳 China

Lançado May 10, 1999 de Taiyuan Satellite Launch Center

Loading…

Próximas Passagens (próximas 24 horas)

TLE

AtualizadoSource: Space-Track

Época: Sep 14, 2026, 12:18 UTC

1 30915U 99025AZD 26257.51319016  .00002096  00000-0  87073-3 0  9996
2 30915  98.9320 344.0980 0052381  91.0882 269.6300 14.26816159  4290

Acompanhe FENGYUN 1C DEB em tempo real com AllMySat

Download on the App Store